Location: Fornova de Taro
(44.7000°N, 10.1000°E)
Time: 21:00:56
(UTC+00:00)

SL-8 Rocket - Pass Details

Date: 26 May 2022
Orbit: 958 x 990 km, 82.9° (Epoch: 02 July)

Event Time Altitude Azimuth Distance (km) Brightness Sun altitude
Rises 02:45:09 0° 349° (NNW) 3,712 7.5 -8.8°
Reaches altitude 10° 02:47:41 10° 346° (NNW) 2,760 6.8 -8.5°
Maximum altitude 02:53:57 64° 267° (W) 1,089 4.1 -7.7°
Drops below altitude 10° 03:00:09 10° 187° (S) 2,739 5.9 -6.8°
Sets 03:02:40 0° 184° (S) 3,680 6.6 -6.5°
